Regional Weather Roundup
Issued by NWS

Home | Current Version | Previous Version | Graphics & Text | Print | Product List | Glossary On
Versions: 1 2 3 4 5 6 7 8 9 10 11 12 13 14 15 16 17 18 19 20 21 22 23 24 25 26 27 28 29 30 31 32 33 34 35 36 37 38 39 40 41 42 43 44 45 46 47 48 49 50
000
ASUS43 KTOP 200108
RWRKS

WEATHER ROUNDUP FOR KANSAS
NATIONAL WEATHER SERVICE GOODLAND KS
700 PM CST SUN NOV 19 2017

NOTE:  "FAIR" INDICATES FEW OR NO CLOUDS BELOW 12,000 FEET WITH NO
SIGNIFICANT WEATHER AND/OR OBSTRUCTIONS TO VISIBILITY.

KSZ001>006-013>018-027>032-041>047-200200-
NORTHWEST KANSAS

CITY           SKY/WX    TMP DP  RH WIND       PRES   REMARKS
GOODLAND       CLOUDY    49  14  24 S13       29.96F
HAYS           CLOUDY    45  23  42 SW5       30.00F
HILL CITY      CLOUDY    45  25  45 W7        29.98F
RUSSELL        CLOUDY    45  23  42 S12       29.99S
$$

KSZ061>065-074>080-084>089-200200-
SOUTHWEST KANSAS

CITY           SKY/WX    TMP DP  RH WIND       PRES   REMARKS
DODGE CITY     CLEAR     47  18  31 S10       30.03F
ELKHART        CLEAR     39  19  44 S10       30.02F WCI  32
GARDEN CITY    CLOUDY    44  19  36 S8        30.01S
GREAT BEND     CLOUDY    44  23  43 S8        30.03S
LIBERAL        CLOUDY    42  19  39 S12       30.04F
PRATT          CLOUDY    47  17  30 S12       30.05F
$$

KSZ066>073-081>083-090>101-200200-
SOUTHEAST KANSAS

CITY           SKY/WX    TMP DP  RH WIND       PRES   REMARKS
CHANUTE        CLOUDY    42  30  62 S8        30.15S
COFFEYVILLE    CLEAR     44  30  57 S6        30.17S
HUTCHINSON     CLOUDY    46  24  42 S9        30.06S
MEDICINE LODGE   N/A     49  21  33 S9        30.07F
NEWTON         CLOUDY    47  22  37 S13       30.08F
PARSONS        CLEAR     44  30  57 S3        30.17S
WICHITA INTL   CLOUDY    46  25  43 S10       30.09S
WICHITA JABRA  PTCLDY    47  24  40 S10       30.09F
WICHITA MCCONL CLOUDY    47  22  38 S8        30.09F
WINFIELD       CLOUDY    46  26  45 S9        30.13F
$$

KSZ007>012-019>026-033>040-048>060-102>105-200200-
NORTHEAST KANSAS

CITY           SKY/WX    TMP DP  RH WIND       PRES   REMARKS
CONCORDIA      CLEAR     48  21  34 S14       30.00S
EMPORIA        CLEAR     40  24  53 S9        30.10S
LAWRENCE       CLEAR     44  31  60 SE8       30.09F
MANHATTAN      CLEAR     44  23  43 S9        30.05F
MARYSVILLE     CLEAR     45  27  49 S9        30.00F
OLATHE IND     CLEAR     42  30  62 S9        30.11F
OLATHE EXE     CLEAR     42  29  59 S6        30.10F
SALINA         CLOUDY    45  24  43 S8        30.04S
TOPEKA BILLARD CLEAR     48  24  39 S8        30.07F
TOPEKA FORBES  CLEAR     44  25  47 S8        30.08F
$$




USA.gov is the U.S. government's official web portal to all federal, state and local government web resources and services.